Location: ??
(35.4032°N, 139.3073°E)
Time: 12:25:29
(UTC+00:00)

Cosmos 1805 - Pass Details

Date: 13 April 2024
Orbit: 490 x 494 km, 82.5° (Epoch: 21 May)

Event Time Altitude Azimuth Distance (km) Brightness Sun altitude
Rises 18:24:20 0° 354° (N) 2,572 7.1 -21.3°
Reaches altitude 10° 18:26:27 10° 356° (N) 1,685 6.1 -20.9°
Maximum altitude 18:30:08 79° 82° (E) 503 3.1 -20.2°
Enters shadow 18:32:04 26° 167° (SSE) 980 4.4 -19.9°
